Wind_Speed
16 16 15 16 14 13 14 13 12 12 10 7 7 13 13 11 9 9 12 13 11 11 10 12 12 13 16 17 16 16 15 15 16 16 17 19 20 21 20 18 13 16 16
20 17 15 14 12 13 13 13 12 15 13 16 18 7 10 11 11 11 11 12 13 13 15 15 14 15 16 17 18 17 17 16 16 17 18 18 16 15 18 17 13 16 15
21 17 15 14 13 13 13 14 14 16 15 16 13 8 11 12 11 11 12 12 12 14 15 15 16 17 17 17 18 18 19 20 20 18 17 14 14 15 14 13 14 14 15
20 17 16 17 16 14 14 15 15 15 15 13 10 11 13 13 13 13 13 14 15 15 15 15 16 17 16 17 17 17 15 13 15 22 18 7 12 13 13 13 14 13 13
22 18 17 17 16 16 15 15 14 14 13 11 11 13 14 14 15 15 15 15 15 14 17 18 16 15 16 17 18 16 21 17 23 19 17 3 10 15 13 13 13 12 11
20 15 16 15 15 15 13 13 12 13 12 11 12 13 14 14 14 15 15 16 16 16 16 15 15 14 14 17 18 20 12 12 17 17 9 7 12 12 11 12 12 10 10
20 15 15 15 14 14 13 12 10 14 14 12 12 13 14 14 14 14 14 16 16 15 15 13 13 13 14 16 18 18 15 17 18 15 6 6 12 13 12 11 10 10 9
21 16 15 14 14 14 14 14 18 20 16 13 11 12 14 14 14 14 14 16 14 13 12 12 12 11 11 14 16 16 18 18 19 10 3 10 12 12 11 11 10 9 8
20 15 13 14 13 14 14 15 18 18 16 13 11 13 13 13 14 16 16 13 12 11 11 11 10 10 11 12 14 15 15 15 15 10 7 8 10 10 10 9 9 9 9
16 16 13 10 11 13 12 13 14 14 13 12 13 13 13 13 13 13 11 11 10 9 11 11 10 9 10 13 15 17 17 15 9 5 4 5 8 10 10 9 8 7 7
14 15 16 10 10 7 10 12 12 12 13 13 14 14 15 12 10 11 9 9 9 11 12 10 9 10 10 13 16 13 14 9 6 7 3 4 8 8 8 9 8 7 6
15 16 17 12 12 13 11 12 12 12 13 13 15 16 14 10 7 7 7 8 10 12 10 11 10 10 10 10 12 8 9 7 7 6 5 2 6 8 8 8 7 7 6
18 20 11 11 15 17 5 11 10 7 10 11 11 11 11 4 10 4 8 11 10 9 10 7 7 7 5 7 7 5 4 7 9 3 4 0 4 6 6 6 6 5 5
18 14 15 10 11 16 10 11 11 12 6 13 9 11 16 9 13 12 6 7 6 2 8 7 3 4 4 6 7 6 3 12 6 7 3 0 0 4 5 5 4 4 4
14 12 15 14 10 14 11 4 12 7 4 8 13 10 11 10 5 7 7 7 4 5 6 9 7 7 4 4 5 2 7 6 10 12 6 5 2 1 2 2 3 2 2
15 13 15 15 10 13 6 8 9 5 6 7 13 11 9 9 9 9 7 8 7 6 9 8 10 10 8 8 5 3 2 6 6 6 7 10 5 2 1 2 1 1 1
15 15 14 11 12 15 10 15 10 7 11 11 7 12 10 7 9 5 6 10 9 7 10 10 6 6 5 6 8 6 7 5 5 8 9 9 8 18 5 6 8 4 4
15 17 13 12 13 10 8 16 9 7 9 7 5 7 15 11 9 9 6 5 10 8 8 7 5 6 8 6 4 4 5 5 7 8 12 12 13 18 23 10 11 15 10
16 19 14 15 13 12 12 11 11 9 8 7 4 7 3 10 8 13 10 8 8 8 7 9 9 12 10 8 5 5 6 6 8 10 12 13 13 18 17 24 20 17 18
18 17 20 19 15 14 15 10 13 9 10 9 13 11 9 5 7 11 10 12 11 11 9 11 14 15 11 10 6 5 9 5 7 12 12 11 15 13 16 20 23 25 25
19 20 22 22 21 19 18 17 13 14 12 11 9 9 9 8 12 7 10 11 9 12 12 13 15 15 13 9 7 7 5 5 7 9 10 7 9 11 13 14 19 23 24
22 22 22 23 24 21 17 14 14 13 12 11 13 12 11 11 10 9 9 7 5 7 12 12 12 11 12 9 9 7 4 4 5 4 8 8 5 8 9 11 15 21 26
25 25 24 22 21 20 16 16 15 13 12 13 13 11 12 8 11 13 9 9 11 9 7 10 8 9 10 10 12 7 4 3 6 8 11 9 7 7 6 6 9 17 23
29 27 24 23 22 21 22 19 19 19 16 16 13 15 14 13 10 9 11 10 11 9 12 9 9 9 9 11 12 11 13 10 6 5 6 6 15 11 11 11 10 12 16
27 28 27 25 24 22 23 22 20 19 16 13 14 16 18 14 13 11 12 13 12 11 11 9 12 14 10 11 11 10 9 11 12 15 13 10 13 15 16 17 16 16 15
29 29 28 30 27 25 24 24 23 20 19 16 15 18 16 17 14 14 16 17 14 13 12 14 12 16 14 14 13 13 13 14 12 13 14 12 14 14 13 14 11 11 14
Wind_Direction
139 136 129 121 116 110 113 114 112 114 108 96 118 115 76 80 79 89 96 105 100 95 98 107 104 94 107 110 116 117 118 124 126 118 105 103 95 89 94 102 102 106 106
138 137 129 123 121 117 119 116 113 110 113 99 107 117 67 87 99 101 101 101 95 97 97 102 103 104 107 111 112 113 109 107 102 103 101 103 101 102 101 111 125 111 110
134 133 127 123 123 117 119 116 115 116 106 97 101 83 93 98 100 102 106 104 101 96 100 105 104 107 109 112 109 108 109 109 106 90 79 82 96 103 108 116 119 112 111
125 129 124 123 117 113 113 113 116 119 112 108 94 99 99 98 97 97 103 106 102 100 101 106 108 115 112 110 110 114 100 107 98 102 97 71 101 104 107 111 111 111 110
129 135 119 117 114 111 115 116 119 119 119 116 97 102 103 99 97 100 103 100 102 104 108 112 114 115 115 112 117 105 94 96 83 90 100 121 109 107 110 106 107 111 111
126 128 118 117 115 117 115 116 127 128 130 115 100 101 99 99 99 99 98 100 108 108 113 115 115 116 114 117 119 105 98 75 94 100 122 114 109 111 102 94 111 109 112
128 125 123 119 117 114 109 110 117 143 134 122 104 102 105 102 101 102 104 108 110 111 107 111 114 115 115 121 122 118 111 107 112 100 130 114 109 104 104 105 107 113 113
123 129 128 121 119 113 118 110 105 120 126 121 110 110 106 104 105 108 110 111 112 115 109 109 113 116 116 126 129 122 110 123 114 113 78 113 105 107 107 107 110 111 109
125 127 124 128 123 121 119 118 116 120 118 117 114 121 107 110 108 109 116 116 116 117 112 103 109 114 116 125 128 128 105 107 121 125 97 107 111 112 112 110 110 112 111
131 127 136 130 113 121 127 129 131 131 125 118 113 115 113 105 106 112 111 119 112 111 111 108 107 101 108 114 120 117 103 120 131 95 95 93 106 107 110 108 106 110 108
132 140 141 128 111 124 125 128 127 131 129 125 115 111 108 93 85 122 129 120 103 109 103 101 98 104 99 115 121 120 103 99 182 165 70 116 122 108 103 112 110 103 98
147 143 144 131 151 142 141 121 101 111 112 114 112 104 106 149 111 104 118 122 111 108 106 96 93 109 103 101 112 105 106 89 92 334 4 146 126 109 104 105 99 102 99
153 147 144 147 157 142 154 106 135 138 124 163 135 107 136 145 147 96 107 111 119 127 102 87 76 121 157 170 204 106 125 159 96 95 354 212 124 111 101 96 99 90 95
143 140 148 153 138 159 131 153 159 148 176 158 166 133 153 173 177 157 105 93 129 164 122 166 118 128 31 55 94 62 101 227 189 209 145 137 192 117 112 108 88 86 75
156 157 158 156 136 151 168 138 174 163 157 161 165 158 167 169 151 154 138 171 197 127 130 171 182 179 182 199 223 173 70 102 118 169 201 167 191 106 87 95 111 85 81
158 161 162 164 167 158 147 174 155 213 185 164 143 192 192 161 172 199 198 164 174 156 215 232 231 202 209 224 219 256 145 126 162 182 177 184 208 159 210 267 350 175 193
166 164 159 168 162 168 181 170 150 202 160 171 189 213 187 189 186 197 186 188 183 205 216 262 223 210 243 264 265 242 273 235 220 226 240 242 238 237 226 233 238 242 230
172 170 167 172 172 174 183 158 154 189 181 209 216 235 193 210 198 178 222 208 200 220 236 280 286 267 274 288 257 239 309 291 272 251 252 259 253 250 231 240 238 233 238
179 175 179 173 186 173 193 173 158 199 169 202 185 229 235 194 228 183 186 237 214 230 239 222 244 267 268 271 259 263 284 276 249 262 256 259 268 259 245 231 236 231 232
184 188 187 180 190 200 204 184 166 199 187 201 223 225 252 226 228 199 193 213 225 214 251 234 245 253 260 263 250 272 307 270 246 254 269 269 266 271 251 238 232 235 236
186 191 193 184 191 204 203 180 185 185 191 199 202 225 238 211 235 242 224 216 232 230 230 243 249 253 269 263 267 277 293 282 255 278 271 286 273 275 269 255 237 235 237
187 195 199 191 200 200 189 180 185 189 193 214 217 233 236 236 245 252 241 232 239 240 259 257 260 263 265 250 249 252 279 277 229 283 265 252 267 265 266 263 245 236 232
193 199 206 198 201 197 186 183 194 202 204 203 220 226 246 254 227 244 248 234 230 233 271 284 287 275 254 249 242 242 255 266 256 277 247 251 247 233 264 278 257 234 236
200 202 210 210 207 201 187 199 195 190 205 216 217 232 244 248 266 262 251 255 242 236 242 271 269 266 255 251 248 251 251 244 262 271 259 252 241 265 270 274 267 256 239
200 201 208 221 218 212 204 197 207 200 207 218 220 222 226 249 259 262 255 251 251 247 241 241 254 274 262 257 261 254 263 267 255 259 277 251 251 264 276 276 270 254 257
200 202 206 217 225 221 217 207 209 221 201 220 227 226 223 238 265 256 253 257 264 258 249 241 250 263 262 255 253 259 254 263 270 272 268 265 277 281 281 282 277 265 265
Height
1556 1556 1558 1559 1561 1562 1563 1565 1566 1567 1568 1568 1570 1573 1573 1573 1575 1576 1576 1577 1577 1578 1578 1579 1580 1580 1581 1581 1582 1583 1583 1584 1585 1585 1585 1586 1586 1587 1588 1589 1590 1590 1591
1554 1557 1559 1561 1562 1564 1565 1566 1567 1569 1569 1570 1572 1573 1574 1576 1577 1577 1579 1579 1580 1580 1580 1580 1582 1583 1583 1584 1585 1586 1586 1587 1587 1588 1588 1589 1589 1590 1590 1592 1593 1593 1594
1555 1558 1560 1562 1564 1565 1567 1568 1569 1570 1570 1572 1574 1576 1577 1578 1579 1580 1581 1582 1581 1582 1583 1583 1584 1585 1586 1587 1587 1588 1587 1586 1587 1588 1590 1592 1592 1594 1594 1595 1596 1596 1597
1558 1560 1562 1564 1565 1567 1568 1570 1571 1572 1573 1576 1577 1579 1579 1580 1581 1581 1583 1583 1584 1584 1585 1586 1586 1587 1588 1589 1590 1589 1589 1590 1595 1592 1594 1595 1595 1596 1597 1597 1598 1599 1599
1561 1562 1563 1565 1567 1569 1570 1571 1573 1574 1576 1578 1580 1581 1581 1581 1583 1584 1585 1585 1585 1586 1587 1588 1588 1589 1589 1590 1591 1592 1592 1595 1587 1596 1595 1596 1597 1598 1599 1599 1600 1601 1602
1561 1563 1565 1567 1569 1570 1571 1572 1574 1576 1578 1580 1581 1582 1583 1584 1585 1586 1587 1587 1588 1588 1589 1589 1590 1590 1591 1592 1594 1595 1594 1593 1595 1597 1597 1598 1599 1600 1600 1602 1602 1603 1605
1561 1564 1566 1568 1570 1572 1573 1574 1575 1576 1579 1581 1583 1583 1585 1586 1587 1589 1589 1589 1590 1591 1591 1591 1592 1593 1593 1595 1596 1597 1597 1598 1600 1600 1600 1601 1601 1601 1603 1604 1605 1606 1607
1563 1565 1568 1570 1571 1573 1574 1575 1576 1578 1581 1583 1584 1585 1586 1587 1588 1589 1590 1591 1592 1592 1593 1594 1595 1595 1596 1597 1598 1599 1600 1600 1602 1602 1603 1603 1602 1602 1604 1606 1606 1608 1608
1565 1566 1569 1571 1573 1574 1575 1577 1579 1580 1581 1583 1585 1586 1587 1589 1590 1590 1591 1592 1593 1594 1595 1597 1597 1598 1598 1599 1600 1601 1601 1600 1603 1602 1604 1605 1604 1604 1604 1606 1608 1609 1609
1567 1569 1571 1573 1574 1575 1576 1578 1580 1582 1583 1585 1586 1587 1589 1590 1591 1592 1593 1593 1594 1595 1597 1598 1599 1601 1601 1601 1601 1603 1604 1606 1608 1606 1605 1605 1606 1606 1606 1607 1608 1610 1611
1570 1571 1572 1574 1575 1577 1578 1580 1582 1583 1585 1587 1587 1589 1590 1592 1592 1593 1594 1595 1596 1597 1599 1600 1601 1602 1602 1601 1603 1604 1606 1608 1604 1608 1609 1607 1607 1608 1608 1608 1609 1610 1611
1570 1571 1572 1575 1578 1578 1580 1581 1583 1585 1587 1588 1590 1591 1591 1594 1595 1595 1595 1596 1598 1599 1600 1601 1601 1602 1601 1603 1605 1608 1609 1611 1609 1611 1611 1610 1609 1609 1610 1610 1611 1611 1612
1568 1573 1574 1576 1577 1580 1581 1581 1584 1586 1588 1589 1592 1592 1594 1595 1596 1595 1596 1597 1598 1601 1601 1602 1603 1602 1600 1603 1606 1609 1608 1612 1609 1614 1614 1612 1611 1611 1611 1611 1612 1613 1614
1570 1573 1575 1577 1578 1580 1582 1585 1586 1588 1589 1590 1591 1593 1595 1596 1592 1597 1596 1597 1600 1601 1602 1604 1604 1603 1601 1603 1605 1604 1603 1605 1608 1612 1614 1613 1614 1612 1611 1612 1613 1614 1615
1570 1573 1573 1577 1579 1581 1583 1585 1586 1587 1588 1589 1591 1593 1595 1596 1595 1597 1598 1599 1600 1601 1602 1603 1604 1604 1603 1603 1605 1609 1607 1608 1609 1610 1611 1613 1614 1612 1612 1612 1613 1613 1615
1570 1573 1572 1576 1578 1581 1583 1585 1587 1587 1588 1590 1592 1593 1595 1596 1598 1599 1599 1600 1601 1603 1602 1603 1604 1604 1604 1603 1605 1605 1608 1610 1608 1609 1611 1610 1611 1610 1611 1612 1613 1614 1614
1569 1573 1573 1575 1578 1580 1582 1584 1586 1588 1588 1590 1592 1594 1596 1597 1597 1599 1600 1600 1601 1602 1602 1603 1603 1602 1602 1602 1603 1604 1605 1606 1607 1607 1606 1607 1605 1605 1608 1611 1613 1614 1614
1569 1571 1573 1576 1578 1579 1581 1583 1586 1588 1589 1590 1591 1592 1595 1596 1597 1598 1600 1601 1601 1601 1602 1603 1603 1602 1602 1602 1602 1602 1602 1603 1603 1604 1604 1604 1603 1603 1606 1609 1611 1612 1613
1568 1569 1572 1576 1576 1579 1580 1582 1584 1587 1589 1589 1591 1591 1593 1595 1596 1597 1599 1600 1601 1600 1601 1603 1603 1601 1601 1600 1600 1600 1601 1602 1602 1602 1602 1601 1601 1600 1602 1605 1608 1608 1610
1566 1567 1571 1574 1575 1576 1578 1581 1582 1585 1588 1590 1591 1592 1593 1594 1595 1597 1598 1599 1600 1600 1600 1600 1600 1599 1599 1599 1599 1599 1599 1599 1600 1599 1599 1599 1598 1598 1598 1601 1602 1604 1607
1563 1565 1567 1570 1573 1574 1576 1578 1581 1583 1586 1587 1588 1590 1591 1592 1593 1595 1596 1597 1597 1597 1598 1598 1599 1599 1598 1595 1598 1598 1597 1595 1596 1597 1596 1596 1596 1596 1596 1598 1599 1600 1601
1560 1562 1565 1567 1569 1572 1575 1577 1580 1582 1584 1586 1586 1587 1588 1591 1592 1593 1593 1594 1594 1595 1596 1597 1597 1598 1597 1597 1596 1596 1596 1596 1594 1593 1593 1594 1592 1593 1592 1592 1593 1595 1595
1556 1559 1561 1563 1565 1569 1572 1576 1580 1582 1584 1585 1584 1585 1586 1588 1589 1589 1591 1592 1592 1593 1594 1595 1595 1594 1595 1595 1595 1596 1595 1594 1593 1592 1591 1592 1592 1590 1589 1589 1589 1589 1591
1552 1554 1558 1561 1563 1566 1569 1573 1575 1578 1580 1582 1584 1584 1584 1585 1585 1586 1587 1588 1589 1591 1592 1593 1592 1592 1592 1592 1591 1592 1593 1593 1593 1591 1590 1589 1588 1587 1587 1586 1585 1585 1586
1550 1552 1555 1558 1561 1564 1567 1570 1573 1576 1578 1580 1581 1582 1583 1582 1583 1583 1584 1584 1585 1587 1588 1589 1589 1590 1590 1590 1589 1589 1590 1590 1590 1588 1586 1586 1585 1584 1583 1581 1581 1581 1582
1546 1549 1551 1552 1556 1560 1563 1567 1569 1572 1575 1577 1577 1577 1578 1580 1580 1581 1582 1582 1583 1583 1584 1586 1586 1586 1586 1587 1587 1587 1586 1586 1586 1585 1583 1584 1583 1581 1579 1578 1577 1577 1578